Location: Allmeina
(47.1300°N, 9.5389°E)
Time: 05:28:15
(UTC+00:00)

Daily predictions for brighter satellites

Satellite Brightness Start Highest point End
(mag) Time Altitude Azimuth Time Altitude Azimuth Time Altitude Azimuth
STARLINK-1228 3.2 00:00:17 10° WNW 00:03:21 69° WNW 00:03:21 69° WNW
Cosmos 2219 4.2 00:00:27 10° NNW 00:05:52 43° NE 00:11:13 10° SE
PSLV R/B 3.7 00:03:54 10° N 00:08:30 76° WNW 00:09:38 49° SSW
Cosmos 1340 Rocket 4.3 00:05:23 10° NW 00:08:37 23° W 00:08:46 23° W
Cosmos 1953 4.2 00:07:01 10° NW 00:09:42 17° W 00:09:56 17° W
Cosmos 1867 3.9 00:07:39 10° NW 00:12:50 45° WSW 00:13:53 40° SSW
STARLINK-1198 4.5 00:09:22 10° WNW 00:13:26 51° NNE 00:17:29 10° E
Cosmos 1892 Rocket 3.5 00:12:32 52° SSW 00:13:31 74° W 00:17:56 10° N
Timation 2 Rocket 3.9 00:07:15 10° NNW 00:13:39 89° WSW 00:17:13 27° SSE
Meteor 2-14 Rocket 4.4 00:13:24 37° S 00:16:00 87° W 00:22:11 10° N
Cosmos 1244 Rocket 4.4 00:13:54 36° SSW 00:16:37 81° W 00:22:51 10° N
Cosmos 1674 3.8 00:17:42 30° W 00:18:12 31° WNW 00:21:36 10° N
Cosmos 2297 Rocket 3.2 00:12:52 10° NNW 00:18:18 44° NE 00:23:39 10° SE
STARLINK-1199 4.4 00:14:19 10° WNW 00:18:24 53° NNE 00:22:28 10° E
SL-16 R/B 3.3 00:13:22 13° SE 00:18:41 48° ENE 00:24:34 10° N
Lacrosse 4 Rocket 4.4 00:18:33 10° N 00:21:16 16° NE 00:23:56 10° ENE
STARLINK-60 3.2 00:21:09 62° NW 00:21:22 64° NNW 00:24:33 10° ENE
Cosmos 1726 Rocket 4.0 00:17:27 10° NNW 00:21:33 42° W 00:22:11 39° WSW
Cosmos 1745 Rocket 4.3 00:18:39 29° SSE 00:21:45 60° E 00:27:46 10° NNE
COSMOS 2455 3.0 00:18:54 29° SW 00:22:00 68° NW 00:28:02 10° NNE
STARLINK-1210 4.3 00:19:19 10° WNW 00:23:25 56° NNE 00:27:29 10° E
MOZ.5/SAFIR/RUBIN 5/SL-8 4.3 00:25:18 25° SE 00:27:51 56° ENE 00:32:23 10° N
Cosmos 1437 2.7 00:28:12 68° ENE 00:28:12 68° ENE 00:31:02 10° NNE
STARLINK-1219 4.2 00:24:17 10° WNW 00:28:23 59° NNE 00:32:29 10° ESE
Cosmos 2084 3.7 00:31:35 45° S 00:32:36 57° SE 00:37:00 10° NE
STARLINK-1211 4.1 00:29:16 10° WNW 00:33:24 62° NNE 00:37:30 10° ESE
Cosmos 1455 4.0 00:30:21 10° NNE 00:33:32 26° ENE 00:35:58 14° ESE
Spot 1 4.2 00:32:33 40° S 00:34:14 77° WSW 00:39:11 10° NNW
SL-08 ROCKET BODY 4.4 00:31:53 31° S 00:34:49 71° E 00:40:38 10° NNE
ADEOS II 4.3 00:32:46 10° NE 00:36:12 17° E 00:39:37 10° SE
Meteor 1-29 3.4 00:33:00 10° N 00:36:16 45° WNW 00:36:37 43° W
STARLINK-1245 4.0 00:34:15 10° WNW 00:38:23 65° NNE 00:42:30 10° ESE
SL-4 R/B 2.5 00:35:31 24° WSW 00:38:29 77° NNW 00:43:14 10° ENE
Cosmos 2228 4.4 00:36:24 10° NW 00:39:44 23° W 00:40:15 22° W
STARLINK-1233 3.9 00:39:13 10° WNW 00:43:22 69° NNE 00:47:29 10° ESE
CZ-2D R/B 2.7 00:39:25 10° NNE 00:44:31 48° E 00:47:17 25° SSE
SJ 16-02 2.2 00:42:00 10° N 00:46:19 49° ENE 00:50:03 13° SE
Resurs 1-4 Rocket 2.6 00:42:25 10° NNE 00:47:36 52° E 00:50:27 25° SSE
DELTA 2 DEB (DPAF) 4.1 00:46:21 38° S 00:48:01 75° WSW 00:52:31 10° NNW
STARLINK-1204 3.8 00:44:13 10° WNW 00:48:21 73° NNE 00:52:30 10° ESE
Cosmos 921 Rocket 3.1 00:47:04 41° SW 00:48:24 66° WNW 00:52:43 10° NNE
STARLINK-29 3.1 00:49:32 53° W 00:50:08 71° NNW 00:53:20 10° ENE
Cosmos 2058 Rocket 3.9 00:46:41 10° NNW 00:50:41 34° W 00:51:37 30° WSW
STARLINK-1238 3.7 00:49:12 10° WNW 00:53:21 77° NNE 00:57:30 10° ESE
Cosmos 2227 Rocket 2.5 00:48:42 10° NNW 00:54:23 68° ENE 01:00:02 10° SE
Cosmos 1697 Rocket 4.1 00:51:50 16° SSE 00:55:14 29° ESE 01:00:02 10° NE
BREEZE-M R/B 2.8 00:56:16 33° SW 00:58:09 63° SSE 01:01:13 10° ENE
STARLINK-1201 3.6 00:54:11 10° WNW 00:58:21 82° NNE 01:02:29 10° ESE
Meteor 2-1 Rocket 4.1 00:55:01 10° NNW 01:00:34 86° W 01:04:04 24° S
GEOS 3 Rocket 3.9 00:58:31 29° S 01:00:41 45° WSW 01:05:45 10° NW
FALCON 9 R/B 3.8 00:57:53 25° SW 01:01:49 40° S 01:21:19 10° ESE
STARLINK-1206 3.6 00:59:09 10° WNW 01:03:19 86° NNE 01:07:27 10° ESE
STARLINK-1338 3.6 01:03:21 43° S 01:03:51 47° SE 01:07:18 10° ENE
ATLAS CENTAUR R/B 2.9 01:01:33 16° W 01:04:17 30° NW 01:07:56 10° NNE
Cosmos 1626 Rocket 3.6 01:02:56 36° SW 01:04:30 62° WNW 01:08:50 10° N
Meteor 1-24 Rocket 4.5 01:03:03 24° WSW 01:05:34 38° WNW 01:10:36 10° N
NPP 3.9 01:01:18 10° NNE 01:06:41 65° ESE 01:09:57 24° S
Cosmos 1386 Rocket 4.5 01:04:08 28° SSW 01:07:29 70° W 01:13:40 10° N
Cosmos 220 Rocket 4.4 01:06:00 32° SW 01:07:50 56° WNW 01:12:13 10° NNE
STARLINK-1205 3.5 01:04:08 10° WNW 01:08:18 89° SW 01:12:27 10° ESE
STARLINK-1371 3.5 01:07:56 43° S 01:08:36 51° SE 01:12:05 10° ENE
Cosmos 1703 4.3 01:07:34 21° SSE 01:09:47 40° E 01:13:30 10° NNE
CZ-4B R/B 3.9 01:05:05 10° NNE 01:10:13 61° ESE 01:13:30 22° S
STARLINK-1341 3.4 01:10:15 43° S 01:10:59 53° SE 01:14:29 10° ENE
BREEZE-M DEB (TANK) 3.4 01:11:52 21° ESE 01:11:52 21° ESE 01:13:09 10° E
Cosmos 1656 3.8 01:08:23 27° S 01:11:33 68° ESE 01:17:09 10° NNE
Cosmos 1709 Rocket 4.0 01:07:36 23° S 01:11:36 79° E 01:17:44 10° N
CZ-4C R/B 3.0 01:10:23 21° SSE 01:13:03 36° ESE 01:18:17 10° NE
Meteor 2-10 Rocket 3.5 01:07:47 10° N 01:13:08 87° ENE 01:16:53 19° SSE
STARLINK-1218 3.5 01:09:06 10° WNW 01:13:16 83° SSW 01:17:25 10° ESE
STARLINK-1374 3.4 01:12:34 42° SSW 01:13:24 56° SE 01:16:54 10° ENE
FALCON 9 DEB 3.2 01:13:20 34° WSW 01:14:42 74° NNW 01:18:10 10° ENE
OE (NEXTSAT) 4.2 01:14:21 33° WSW 01:15:45 73° S 01:19:14 10° E
STARLINK-1339 3.3 01:14:55 41° SSW 01:15:51 58° SE 01:19:24 10° ENE
RESURS DK-1 3.6 01:15:35 20° WSW 01:17:41 32° NW 01:21:28 10° NNE
STARLINK-1254 3.5 01:14:05 10° WNW 01:18:14 78° SSW 01:22:23 10° SE
Cosmos 990 Rocket 4.0 01:12:57 10° NNW 01:18:15 87° ENE 01:23:28 10° SSE
STARLINK-1377 3.3 01:17:17 40° SSW 01:18:19 61° SE 01:21:52 10° ENE
STARLINK-1353 3.3 01:19:40 39° SSW 01:20:47 64° SSE 01:24:21 10° ENE
STARLINK-1231 3.5 01:19:04 10° WNW 01:23:13 73° SSW 01:27:21 10° SE
STARLINK-1375 3.2 01:22:02 37° SW 01:23:15 66° SE 01:26:48 10° ENE
ATLAS 3B R/B 3.7 01:17:59 10° WNW 01:23:32 27° WSW 01:25:57 22° SW
CZ-4C R/B 3.9 01:22:03 30° SSW 01:23:41 45° W 01:27:53 10° NNW
STARLINK-1350 3.2 01:24:27 36° SW 01:25:46 69° SSE 01:29:22 10° ENE
Cosmos 1812 Rocket 3.9 01:21:54 10° NNW 01:26:14 49° W 01:28:18 27° SSW
STARLINK-52 3.8 01:24:32 20° W 01:26:29 47° NNW 01:29:37 10° NE
Cosmos 1626 4.2 01:25:23 14° W 01:26:36 15° WNW 01:28:53 10° NNW
STARLINK-1232 3.5 01:24:04 10° WNW 01:28:11 68° SSW 01:32:18 10° SE
STARLINK-1352 3.2 01:26:52 34° SW 01:28:18 73° SSE 01:31:54 10° ENE
CBERS-1 4.4 01:24:01 10° NNE 01:29:06 60° ESE 01:32:56 17° S
STARLINK-1368 3.2 01:29:19 32° SW 01:30:50 76° SSE 01:34:27 10° ENE
Cosmos 841 Rocket 4.5 01:27:07 15° SSE 01:31:06 41° ESE 01:36:00 10° NE
STARLINK-1208 3.5 01:29:03 10° WNW 01:33:10 63° SW 01:37:15 10° SE
STARLINK-1369 3.2 01:31:46 31° SW 01:33:23 79° SSE 01:37:00 10° ENE
Cosmos 2369 4.2 01:30:19 18° S 01:34:18 54° ESE 01:39:49 10° NE
STARLINK-1225 4.5 01:31:17 10° WNW 01:35:22 52° NNE 01:39:26 10° E
STARLINK-1372 3.2 01:34:13 29° SW 01:35:57 82° SSE 01:39:34 10° ENE
Cosmos 1825 Rocket 3.5 01:35:00 23° S 01:37:40 90° SSE 01:42:02 10° N
STARLINK-1271 3.6 01:34:02 10° WNW 01:38:07 58° SW 01:42:11 10° SE
Cosmos 1602 Rocket 4.4 01:36:14 23° SW 01:38:17 36° WNW 01:42:17 10° N
STARLINK-1378 3.2 01:36:42 27° WSW 01:38:32 85° SE 01:42:10 10° ENE
Meteor 1-21 Rocket 4.3 01:34:55 22° SSW 01:38:32 65° WNW 01:44:13 10° N
STARLINK-1329 3.2 01:38:25 26° WSW 01:40:19 87° SSE 01:43:57 10° ENE
STARLINK-1230 4.4 01:36:17 10° WNW 01:40:22 55° NNE 01:44:27 10° E
STARLINK-1379 3.2 01:39:11 26° WSW 01:41:07 88° SSE 01:44:45 10° ENE
Cosmos-2242 2.9 01:37:20 10° NNW 01:41:36 76° W 01:44:49 17° S
STARLINK-1365 3.2 01:40:26 25° WSW 01:42:29 88° NNW 01:46:09 10° ENE
ERS-2 3.9 01:39:40 10° SE 01:42:59 33° ENE 01:46:19 10° N
STARLINK-1362 3.2 01:40:58 25° WSW 01:42:59 89° NNE 01:46:37 10° ENE
STARLINK-1154 3.7 01:39:02 10° WNW 01:43:05 54° SW 01:47:07 10° SE
IRS-1D 3.6 01:39:36 10° NNE 01:44:59 82° ESE 01:49:10 17° SSW
STARLINK-1243 4.3 01:41:15 10° WNW 01:45:22 58° NNE 01:49:27 10° ESE
STARLINK-1373 3.2 01:43:28 23° WSW 01:45:35 87° NNW 01:49:15 10° ENE
BREEZE M DEB (TANK) 2.7 01:44:00 12° W 01:46:07 49° SSW 01:51:23 10° SE
Cosmos 1763 Rocket 3.4 01:44:25 21° SSW 01:47:56 81° WNW 01:53:02 10° NNE
STARLINK-1197 3.7 01:44:01 10° WNW 01:48:02 50° SW 01:52:02 10° SE
STARLINK-1390 3.2 01:45:52 22° WSW 01:48:05 84° NNW 01:51:44 10° ENE
Cosmos 1980 Rocket 3.2 01:43:28 12° S 01:48:20 41° ESE 01:53:35 10° NE
Cosmos 2219 3.9 01:44:52 10° NW 01:49:54 34° WSW 01:53:28 17° SSW
STARLINK-1236 4.2 01:46:15 10° WNW 01:50:22 60° NNE 01:54:29 10° ESE
ATLAS CENTAUR R/B 2.5 01:47:54 10° WNW 01:50:54 43° SW 01:57:31 10° SSE
STARLINK-1320 3.1 01:50:50 21° WSW 01:52:45 67° NNW 01:55:51 10° ENE
STARLINK-1198 3.8 01:49:02 10° WNW 01:53:01 46° SW 01:56:59 10° SE
ATLAS 2AS CENTAUR R/B 4.5 01:46:08 10° W 01:53:05 31° NNW 01:59:53 10° NE
STARLINK-1322 3.1 01:51:09 21° WSW 01:53:05 66° NNW 01:56:12 10° ENE
STARLINK-1324 3.1 01:51:29 21° WSW 01:53:25 66° NNW 01:56:33 10° ENE
STARLINK-1294 3.1 01:51:46 20° WSW 01:53:44 66° NNW 01:56:52 10° ENE
Cosmos 2074 Rocket 4.3 01:47:42 10° S 01:53:55 68° E 02:00:11 10° NNE
STARLINK-1261 3.1 01:52:08 20° WSW 01:54:07 65° NNW 01:57:13 10° ENE
STARLINK-1325 3.1 01:52:28 20° WSW 01:54:27 65° NNW 01:57:33 10° ENE
STARLINK-1333 3.1 01:52:48 20° WSW 01:54:47 65° NNW 01:57:54 10° ENE
STARLINK-1334 3.1 01:53:07 20° WSW 01:55:07 64° NNW 01:58:14 10° ENE
STARLINK-1326 3.1 01:53:27 19° WSW 01:55:28 64° NNW 01:58:35 10° ENE
STARLINK-1323 3.1 01:53:46 19° WSW 01:55:48 64° NNW 01:58:55 10° ENE
STARLINK-1349 3.2 01:54:05 19° WSW 01:56:08 63° NNW 01:59:15 10° ENE
GP-B 3.4 01:51:53 10° N 01:56:12 53° W 01:59:19 18° SSW
STARLINK-1336 3.2 01:54:25 19° WSW 01:56:29 63° NNW 01:59:35 10° ENE
STARLINK-1331 3.2 01:54:45 19° WSW 01:56:49 63° NNW 01:59:55 10° ENE
STARLINK-1344 3.2 01:55:05 19° WSW 01:57:10 62° NNW 02:00:16 10° ENE
STARLINK-1343 3.2 01:55:23 18° WSW 01:57:30 62° NNW 02:00:36 10° ENE
STARLINK-1346 3.2 01:55:40 18° WSW 01:57:49 62° NNW 02:00:57 10° ENE
STARLINK-1199 3.9 01:54:01 10° WNW 01:57:57 43° SW 02:01:52 10° SSE
STARLINK-1328 3.2 01:56:02 18° WSW 01:58:10 61° NNW 02:01:16 10° ENE
STARLINK-1354 3.2 01:56:22 18° WSW 01:58:30 61° NNW 02:01:37 10° ENE
STARLINK-1347 3.2 01:56:41 18° WSW 01:58:51 61° NNW 02:01:57 10° ENE
STARLINK-1357 3.2 01:57:01 18° WSW 01:59:11 60° NNW 02:02:17 10° ENE
STARLINK-1335 3.2 01:57:23 17° WSW 01:59:34 60° NNW 02:02:40 10° ENE
STARLINK-1327 3.2 01:57:41 17° WSW 01:59:52 60° NNW 02:02:59 10° ENE
STARLINK-1340 3.3 01:57:59 17° WSW 02:00:12 60° NNW 02:03:17 10° ENE
STARLINK-1269 4.0 01:56:11 10° WNW 02:00:19 67° NNE 02:04:28 10° ESE
STARLINK-1356 3.3 01:58:18 17° WSW 02:00:32 59° NNW 02:03:38 10° ENE
Lacrosse 4 Rocket 1.4 01:56:16 10° NNW 02:00:39 88° ENE 02:04:51 10° SSE
STARLINK-1345 3.3 01:58:39 17° WSW 02:00:53 59° NNW 02:03:58 10° ENE
STARLINK-1355 3.3 01:58:58 17° WSW 02:01:12 59° NNW 02:04:18 10° ENE
STARLINK-1321 3.3 01:59:18 17° WSW 02:01:34 58° NNW 02:04:40 10° ENE
STARLINK-1358 3.3 01:59:37 16° WSW 02:01:54 58° NNW 02:04:59 10° ENE
Cosmos 2297 Rocket 2.9 01:57:11 10° NW 02:02:12 33° WSW 02:06:36 13° SSW
STARLINK-1332 3.3 01:59:59 16° W 02:02:16 58° NNW 02:05:22 10° ENE
SL-16 R/B 3.3 01:58:27 16° SSW 02:02:28 33° W 02:07:58 10° NNW
STARLINK-1348 3.3 02:00:16 16° W 02:02:34 57° NNW 02:05:40 10° ENE
STARLINK-1330 3.3 02:00:36 16° W 02:02:54 57° NNW 02:06:00 10° ENE
STARLINK-1210 4.0 01:59:02 10° WNW 02:02:55 39° SW 02:06:47 10° SSE
STARLINK-1363 3.3 02:00:57 16° W 02:03:16 57° NNW 02:06:22 10° ENE
STARLINK-1337 3.3 02:01:15 16° W 02:03:36 57° NNW 02:06:42 10° ENE
STARLINK-1342 3.4 02:01:33 16° W 02:03:55 56° NNW 02:07:00 10° ENE
STARLINK-1364 3.4 02:01:53 15° W 02:04:15 56° NNW 02:07:21 10° ENE
STARLINK-1376 3.4 02:02:14 15° W 02:04:37 56° NNW 02:07:42 10° ENE
STARLINK-1360 3.4 02:02:33 15° W 02:04:57 56° NNW 02:08:02 10° ENE
STARLINK-1361 3.4 02:02:52 15° W 02:05:16 55° NNW 02:08:21 10° ENE
STARLINK-1200 3.9 02:01:11 10° WNW 02:05:20 71° NNE 02:09:29 10° ESE
STARLINK-1367 3.4 02:03:08 15° W 02:05:35 56° NNW 02:08:42 10° ENE
STARLINK-1366 3.4 02:03:33 15° W 02:05:59 55° NNW 02:09:03 10° ENE
NOSS 7 (H) 4.4 02:05:34 19° SW 02:07:37 61° NW 02:10:33 10° NNE
Cosmos 2184 Rocket 4.1 02:01:30 10° S 02:07:40 81° E 02:13:51 10° N
STARLINK-1219 4.1 02:04:02 10° WNW 02:07:52 36° SW 02:11:40 10° SSE
Cosmos 2082 3.8 02:02:20 10° NNW 02:07:54 58° WSW 02:13:23 10° S
Cosmos 1328 4.3 02:06:11 18° SW 02:08:53 45° WNW 02:12:46 10° N
Cosmos 1455 3.5 02:06:01 10° NW 02:09:03 24° W 02:10:52 17° SW
STARLINK-1192 3.8 02:06:10 10° WNW 02:10:19 75° NNE 02:14:29 10° ESE
ARIANE 5 R/B 2.8 02:06:18 10° NNE 02:11:22 68° ESE 02:16:21 10° S
STARLINK-1211 4.2 02:09:04 10° WNW 02:12:49 34° SW 02:16:34 10° SSE
Meteor 1-28 Rocket 3.4 02:09:31 10° SSE 02:13:17 73° ENE 02:17:02 10° N
Cosmos 2263 Rocket 3.5 02:09:24 10° NNW 02:14:48 45° NE 02:20:07 10° SE
Cosmos 2278 3.8 02:09:52 13° SSW 02:14:58 78° ESE 02:20:39 10° NNE
STARLINK-1244 3.7 02:11:09 10° WNW 02:15:18 80° NNE 02:19:28 10° ESE
ADEOS II 2.1 02:11:10 10° N 02:16:25 71° WNW 02:21:22 12° SSW
H-2A R/B 2.6 02:12:47 10° SSE 02:17:04 65° ENE 02:21:28 10° N
Cosmos 1898 Rocket 4.3 02:12:50 10° NW 02:17:32 32° W 02:22:11 10° SSW
STARLINK-1245 4.3 02:14:05 10° WNW 02:17:46 31° SW 02:21:26 10° SSE
SL-4 R/B 3.3 02:13:58 10° WNW 02:18:38 48° N 02:23:07 10° ENE
STARLINK-1138 3.7 02:16:06 10° WNW 02:20:17 85° NNE 02:24:26 10° ESE
Cosmos 2322 Rocket 4.5 02:16:47 10° SE 02:20:38 19° E 02:24:28 10° ENE
Spot 4 Rocket 4.5 02:16:21 10° NNE 02:21:27 62° ESE 02:26:32 10° S
STARLINK 1040 4.2 02:20:49 13° S 02:22:25 22° SE 02:24:31 10° E
STARLINK-1233 4.4 02:19:07 10° WNW 02:22:42 29° SW 02:26:18 10° SSE
IRS-P3 4.2 02:17:26 10° N 02:22:45 69° WNW 02:27:59 10° SSW
CZ-2D R/B 3.4 02:19:58 10° N 02:24:19 27° WNW 02:28:36 10° WSW
SJ 16-02 2.9 02:21:25 10° NW 02:24:32 19° W 02:27:00 12° SW
Cosmos 1937 Rocket 4.1 02:19:50 10° NW 02:24:38 38° WSW 02:29:28 10° S
STARLINK-1143 3.6 02:21:05 10° WNW 02:25:15 89° NNE 02:29:24 10° ESE
Cosmos 2298 Rocket 4.1 02:21:22 10° NNW 02:26:43 89° ENE 02:32:01 10° SSE
Resurs 1-4 Rocket 3.5 02:22:50 10° N 02:27:06 25° WNW 02:31:22 10° WSW
ERBS 3.3 02:24:30 10° NW 02:27:46 50° NNE 02:31:02 10° ESE
Meteor 1-11 4.3 02:22:42 10° SSW 02:28:11 64° WNW 02:33:46 10° N
STARLINK-1203 3.6 02:25:23 10° WNW 02:29:36 85° SSW 02:33:48 10° ESE
STARLINK-1241 3.6 02:26:04 10° WNW 02:30:15 85° SSW 02:34:23 10° ESE
Cosmos 1570 Rocket 4.3 02:25:32 12° SW 02:30:23 58° WNW 02:35:38 10° NNE
CZ-4B R/B 4.2 02:29:16 10° ESE 02:31:27 18° ENE 02:33:38 10° NNE
Cosmos 1953 Rocket 4.4 02:29:53 12° SW 02:33:40 36° WNW 02:37:48 10° N
STARLINK-1239 3.5 02:31:03 10° WNW 02:35:12 80° SSW 02:39:21 10° SE
Cosmos 2208 Rocket 4.2 02:30:57 11° SW 02:35:59 62° WNW 02:41:17 10° NNE
Cosmos 2227 Rocket 3.5 02:33:47 10° NW 02:37:52 21° W 02:41:56 10° SSW
IDEFIX/ARIANE 42P 3.1 02:33:01 10° NNE 02:38:17 63° ESE 02:43:30 10° S
Cosmos 1697 Rocket 3.2 02:33:34 11° SW 02:38:56 50° WNW 02:44:28 10° NNE
Cosmos 2154 Rocket 4.1 02:33:44 10° S 02:40:03 89° W 02:46:20 10° N
STARLINK-1240 3.5 02:36:03 10° WNW 02:40:12 75° SSW 02:44:20 10° SE
Cosmos 1869 3.3 02:36:29 10° N 02:40:25 87° E 02:44:16 10° S
Cosmos 1842 Rocket 3.6 02:36:31 10° NNW 02:41:00 67° W 02:45:25 10° S
STARLINK-1338 4.2 02:37:56 10° W 02:41:22 44° NNW 02:44:49 10° ENE
Cosmos 1400 Rocket 3.6 02:39:15 10° NNW 02:42:59 34° W 02:46:43 10° SSW
Cosmos 1814 Rocket 4.3 02:37:59 10° SW 02:43:17 61° WNW 02:48:35 10° NNE
STARLINK-1216 3.6 02:41:01 10° WNW 02:45:09 70° SSW 02:49:16 10° SE
IRIDIUM 104 4.4 02:40:12 10° S 02:45:25 85° W 02:50:41 10° N
STARLINK-1371 4.3 02:42:46 10° W 02:46:11 42° NNW 02:49:38 10° ENE
Cosmos 1125 Rocket 3.7 02:42:15 10° NNW 02:47:29 78° ENE 02:52:41 10° SSE
STARLINK-1341 4.3 02:45:08 10° W 02:48:32 41° NNW 02:51:56 10° NE
SL-16 R/B 3.5 02:43:23 10° S 02:48:32 37° ESE 02:53:43 10° NE
STARLINK-1237 3.6 02:46:01 10° WNW 02:50:07 65° SW 02:54:13 10° SE
SL-08 R/B 4.0 02:45:59 10° SSW 02:50:13 33° W 02:54:26 10° NNW
STARLINK-1374 4.4 02:47:34 10° W 02:50:58 40° NNW 02:54:23 10° NE
Cosmos 540 Rocket 4.0 02:47:48 10° SW 02:52:45 46° WNW 02:57:42 10° NNE
OE (NEXTSAT) 4.5 02:49:52 10° W 02:53:18 56° SSW 02:56:43 10° ESE
STARLINK-1339 4.4 02:50:07 10° W 02:53:32 40° NNW 02:56:56 10° ENE
IRIDIUM 114 4.4 02:49:24 10° S 02:54:35 71° W 02:59:49 10° N
STARLINK-1202 3.6 02:51:01 10° WNW 02:55:06 60° SW 02:59:11 10° SE
